Wind_Speed
37 38 35 35 36 38 36 35 31 25 27 19 9 5 10 11 5 22 32 10 22 54 26 59 56 64 51 44 53 57 60 56 51 49 49 48 48 48 48 47 46 45 43 42
36 36 35 34 33 35 34 31 28 24 27 16 12 17 15 4 14 21 19 8 14 33 54 49 58 60 48 57 42 55 62 61 56 52 51 51 52 52 51 51 50 48 46 44
36 33 36 32 29 27 30 28 28 22 22 16 19 18 11 1 11 15 10 7 15 20 38 47 53 53 60 51 36 38 47 63 60 55 55 53 53 52 52 50 49 49 48 48
34 32 33 30 27 24 27 27 26 19 16 13 13 15 12 9 6 12 18 9 12 19 19 32 49 55 43 42 37 45 40 66 64 60 57 55 54 55 55 55 55 54 53 52
29 32 26 28 26 25 24 25 24 18 12 12 6 5 14 9 11 10 12 10 11 9 8 19 17 32 28 39 32 21 29 48 58 62 59 56 56 55 55 56 56 55 54 54
31 29 26 25 25 23 21 22 20 19 12 7 8 4 5 11 15 10 12 11 8 6 7 1 11 8 17 40 55 31 17 27 36 56 61 59 55 56 56 56 56 56 56 55
30 30 28 21 19 17 18 16 15 17 13 9 8 10 8 6 11 7 8 9 9 4 6 6 5 7 7 16 17 23 26 26 26 36 62 58 58 56 55 55 55 56 57 56
28 28 28 25 22 18 15 12 15 16 16 14 10 11 12 6 6 5 6 6 6 6 5 11 10 8 15 13 13 13 19 17 13 21 30 55 67 58 59 57 59 57 57 57
28 27 30 27 23 18 17 13 14 14 15 14 15 17 15 9 7 3 3 5 8 10 12 13 15 14 15 19 25 30 33 32 28 20 19 19 50 65 61 59 59 65 60 59
26 24 28 25 26 22 19 14 11 9 11 14 18 20 19 15 11 8 7 4 4 9 13 16 18 20 22 23 28 31 36 33 38 39 32 34 32 27 30 57 44 63 63 68
26 25 27 27 25 25 21 15 8 8 10 11 13 13 16 13 11 10 10 12 10 7 9 13 18 21 25 28 31 33 35 36 39 37 38 37 41 43 43 42 42 46 48 38
23 23 22 23 23 23 22 16 12 9 11 14 16 13 16 17 13 12 14 15 16 18 18 16 16 18 20 21 24 30 33 34 37 39 44 44 45 45 50 49 50 48 48 53
20 21 21 23 22 24 23 18 15 13 14 16 18 17 19 19 20 22 23 23 23 24 26 29 28 26 26 26 28 29 30 30 32 36 41 45 47 48 50 50 52 54 56 58
19 20 22 23 21 19 19 22 19 16 15 16 21 26 26 28 27 24 28 35 37 37 37 38 38 37 37 35 34 35 36 36 35 37 38 39 41 45 50 53 54 55 57 60
21 21 19 23 24 22 21 21 22 23 24 24 23 24 28 32 33 32 34 34 37 42 45 46 45 44 43 42 42 41 39 40 42 42 43 43 43 44 46 48 50 54 58 60
25 25 24 21 24 25 24 27 26 26 27 29 29 30 33 35 36 38 40 41 42 43 45 48 51 51 51 49 48 47 47 48 48 47 48 50 50 51 50 50 51 53 55 55
26 29 29 23 28 31 29 28 29 30 32 33 35 36 38 40 42 44 46 49 50 51 50 50 52 54 57 57 55 54 54 54 55 55 54 54 56 55 55 56 55 55 55 56
31 33 33 31 32 34 36 37 37 39 39 39 40 42 44 46 50 52 54 55 56 58 58 58 58 59 60 62 64 63 62 60 58 57 58 60 60 60 60 59 60 61 61 61
35 35 35 36 38 41 41 43 44 46 47 48 49 52 54 55 56 58 59 60 62 63 65 67 67 68 67 67 67 67 68 68 68 65 62 61 62 63 63 63 63 62 62 62
34 34 38 39 45 47 46 47 49 52 52 55 58 59 60 62 63 63 63 65 68 71 73 74 75 75 77 77 75 73 71 70 70 71 70 68 66 65 65 65 66 66 67 66
37 41 42 44 47 49 49 51 55 56 59 61 63 66 68 69 69 69 70 73 73 75 76 78 81 82 80 79 78 79 79 78 76 75 75 75 75 73 72 70 69 70 70 68
42 45 46 49 52 55 55 57 59 63 66 67 69 70 72 73 74 75 75 75 75 77 79 81 81 84 85 86 87 87 86 85 85 84 84 83 83 83 82 79 76 77 76 75
45 47 50 52 56 58 60 63 66 69 70 71 73 73 74 75 75 76 77 79 80 80 80 81 83 84 85 87 89 89 88 90 90 90 88 86 86 88 88 89 87 85 84 83
47 50 53 58 60 63 66 68 70 72 74 74 73 74 75 77 79 81 81 80 79 80 79 79 79 79 75 65 61 62 64 70 77 80 80 77 76 75 79 84 87 90 89 88
51 55 60 63 66 67 69 72 72 73 74 76 77 79 79 79 79 77 75 74 72 70 65 59 52 47 47 47 47 49 45 40 48 53 52 53 55 55 57 58 59 65 71 78
58 63 66 69 70 71 71 72 73 74 76 77 78 79 78 76 72 68 64 60 53 46 42 40 38 35 34 36 37 37 38 40 40 39 43 41 39 40 41 42 42 48 51 53
Wind_Direction
346 344 345 350 352 356 2 359 360 7 9 12 25 58 109 67 94 181 198 199 174 190 188 201 204 206 214 209 207 214 222 221 224 226 219 221 221 221 223 225 227 230 233 235
343 342 347 350 356 354 1 1 5 12 20 33 72 102 105 144 114 181 213 195 159 192 199 198 205 209 203 229 218 207 217 220 222 227 226 220 221 222 223 225 227 230 232 236
338 345 346 350 356 352 0 4 11 20 33 58 106 111 78 15 70 182 111 204 176 185 205 214 209 212 219 223 235 233 214 222 224 224 229 227 225 226 227 228 230 233 234 236
335 346 346 348 347 357 1 11 17 23 44 70 112 101 77 39 43 80 106 143 218 214 211 219 227 232 223 219 230 220 235 224 220 224 230 231 226 225 226 228 229 231 234 236
340 339 347 344 347 2 6 15 17 24 39 61 108 81 91 85 86 78 69 115 119 117 210 231 248 249 260 230 222 220 230 221 220 222 224 229 229 227 229 232 234 236 237 239
346 337 349 350 351 358 11 15 16 27 34 52 77 86 59 85 85 121 130 121 137 127 203 136 249 286 259 245 235 233 247 239 227 227 224 227 228 230 231 232 235 237 239 240
351 342 350 358 356 3 7 9 21 35 38 54 65 70 35 87 108 103 127 146 144 168 249 350 344 342 328 273 284 268 267 253 231 222 225 228 230 230 232 235 236 239 240 241
357 342 351 354 1 6 20 25 30 31 36 43 44 46 74 41 89 117 128 145 176 202 238 254 270 307 315 296 249 255 260 269 251 225 233 231 232 233 235 237 237 238 240 242
0 344 352 353 357 3 10 15 22 33 35 34 48 55 60 68 75 70 172 195 209 215 214 222 236 234 252 268 269 281 276 285 281 278 258 244 237 230 231 241 246 243 242 242
7 354 354 2 355 358 3 7 17 27 35 29 34 45 48 45 43 33 13 4 283 258 251 243 241 243 243 242 245 255 265 260 266 274 268 278 276 265 239 239 248 240 246 248
6 1 355 2 357 350 359 354 3 14 18 14 26 39 37 26 13 7 351 336 324 303 286 273 258 249 250 251 254 250 246 247 250 246 238 239 252 259 258 252 252 257 247 253
2 6 1 7 8 356 10 10 353 360 353 351 348 358 5 350 349 332 323 315 307 305 298 287 279 275 270 266 264 262 259 256 253 249 250 246 238 239 240 235 236 238 236 239
355 3 4 2 8 3 4 10 359 339 329 331 328 330 327 328 328 326 323 319 311 306 305 300 290 281 278 275 272 269 265 262 263 263 259 258 259 256 252 250 247 241 241 244
339 346 348 345 349 355 348 346 348 343 332 323 316 319 320 317 314 308 306 308 307 304 301 300 299 298 293 286 277 271 270 267 264 260 258 259 258 258 259 259 258 259 254 253
323 325 333 329 331 337 333 331 329 325 321 320 313 308 306 307 308 307 303 298 294 294 295 295 294 292 291 289 287 283 274 269 267 265 263 262 261 260 259 257 257 257 257 260
312 313 318 316 315 319 318 316 317 313 309 305 303 301 299 298 296 296 294 293 291 289 290 290 291 290 288 286 285 282 279 276 272 268 266 265 264 263 259 257 258 258 257 257
305 305 305 306 303 307 307 306 303 300 299 296 295 296 296 295 292 290 290 289 290 289 288 286 285 284 284 283 280 278 276 274 274 273 271 268 267 266 265 263 260 257 257 258
302 302 300 301 301 305 306 307 307 304 302 298 298 297 294 292 291 291 290 290 288 288 288 287 284 282 280 280 281 280 277 275 272 270 269 269 269 268 267 265 264 262 261 260
298 297 296 298 298 301 300 302 302 301 297 298 298 294 294 295 294 293 291 288 286 284 284 284 284 282 280 279 278 278 278 279 278 274 270 268 267 267 266 266 265 265 264 263
292 293 295 297 298 297 298 298 298 294 294 293 292 294 295 294 292 290 288 286 285 286 286 286 286 284 283 283 283 282 280 278 277 277 276 273 269 266 266 265 264 262 261 261
291 293 294 294 294 294 296 295 294 294 292 292 292 292 291 291 290 289 289 289 289 289 289 288 287 286 286 283 282 281 280 278 276 273 272 272 272 270 267 265 265 265 263 261
291 292 293 292 293 295 296 295 294 293 292 291 290 290 291 291 291 291 290 289 288 287 287 286 286 286 285 284 284 284 281 279 278 277 276 275 272 271 269 267 265 265 265 265
293 293 294 295 295 296 294 294 293 293 293 293 293 293 292 292 291 290 289 287 286 286 286 285 284 286 286 286 286 285 284 283 281 281 278 275 273 272 271 270 267 264 262 261
292 293 294 294 294 294 294 294 293 294 294 293 293 293 293 292 293 292 291 290 289 287 286 285 283 282 284 287 289 290 291 291 290 288 287 285 282 278 273 269 264 264 263 260
295 295 295 295 295 293 294 294 295 296 296 296 296 295 295 294 292 292 291 289 287 287 287 287 287 285 282 282 285 289 289 298 302 298 293 288 284 279 275 272 267 265 264 263
295 296 296 296 296 296 297 296 296 296 296 296 296 295 294 293 292 291 290 290 290 288 284 281 280 280 283 285 291 292 300 304 311 308 297 292 286 285 282 275 268 267 268 269
Height
5737 5731 5724 5717 5708 5701 5694 5687 5680 5672 5665 5659 5658 5658 5660 5662 5661 5665 5667 5669 5678 5687 5691 5708 5715 5719 5727 5726 5740 5746 5756 5764 5770 5774 5778 5785 5791 5796 5801 5805 5809 5811 5815 5818
5735 5728 5721 5715 5708 5701 5695 5689 5681 5673 5668 5663 5661 5663 5664 5662 5664 5668 5670 5673 5678 5686 5693 5701 5711 5716 5718 5725 5729 5735 5743 5754 5761 5767 5771 5775 5780 5784 5789 5794 5799 5803 5807 5811
5731 5727 5718 5713 5710 5705 5698 5691 5683 5677 5673 5668 5666 5667 5668 5666 5666 5673 5673 5675 5681 5688 5696 5701 5707 5714 5717 5721 5723 5727 5737 5746 5753 5759 5765 5768 5773 5778 5782 5787 5792 5795 5798 5801
5728 5723 5718 5713 5709 5705 5699 5691 5685 5680 5678 5675 5674 5672 5672 5673 5673 5674 5677 5681 5685 5690 5697 5703 5704 5708 5713 5718 5721 5725 5731 5734 5742 5749 5756 5761 5764 5768 5771 5775 5778 5782 5786 5790
5728 5721 5717 5712 5708 5703 5699 5693 5688 5684 5681 5678 5678 5678 5675 5677 5678 5679 5680 5682 5685 5689 5694 5701 5703 5706 5708 5713 5719 5720 5725 5727 5734 5740 5747 5753 5757 5759 5763 5767 5771 5775 5778 5781
5726 5718 5715 5710 5706 5702 5699 5696 5692 5687 5684 5682 5680 5680 5678 5679 5681 5684 5685 5685 5688 5689 5694 5699 5702 5703 5704 5707 5711 5716 5718 5722 5724 5731 5737 5743 5747 5750 5754 5757 5761 5764 5767 5770
5724 5716 5713 5711 5708 5704 5700 5698 5696 5691 5687 5685 5682 5682 5683 5682 5683 5685 5686 5687 5689 5691 5695 5698 5700 5700 5702 5705 5707 5711 5713 5719 5720 5722 5727 5732 5736 5739 5744 5746 5750 5753 5756 5758
5722 5714 5711 5707 5705 5703 5702 5700 5696 5693 5690 5687 5685 5686 5685 5686 5686 5686 5687 5689 5691 5693 5695 5696 5698 5699 5701 5703 5706 5707 5709 5713 5712 5713 5716 5721 5725 5729 5733 5735 5738 5741 5744 5746
5721 5714 5710 5707 5704 5703 5700 5699 5698 5695 5693 5691 5689 5688 5687 5687 5687 5689 5690 5692 5692 5694 5695 5695 5695 5695 5698 5700 5703 5704 5705 5706 5707 5708 5709 5711 5713 5715 5720 5724 5727 5731 5732 5732
5721 5716 5711 5709 5705 5703 5702 5701 5698 5697 5696 5694 5692 5691 5691 5690 5690 5690 5690 5691 5693 5692 5693 5694 5694 5693 5694 5695 5697 5697 5699 5699 5701 5701 5702 5703 5705 5707 5706 5712 5713 5716 5719 5719
5720 5716 5712 5708 5705 5703 5703 5700 5701 5698 5696 5694 5694 5694 5692 5692 5691 5691 5691 5690 5690 5691 5691 5689 5691 5691 5689 5689 5689 5689 5689 5690 5691 5691 5691 5693 5697 5699 5700 5702 5700 5703 5704 5705
5718 5716 5712 5710 5706 5703 5704 5702 5700 5699 5699 5696 5694 5695 5695 5692 5691 5691 5691 5690 5688 5685 5686 5688 5686 5684 5683 5682 5681 5682 5681 5680 5679 5678 5681 5682 5682 5682 5684 5684 5683 5685 5686 5689
5717 5714 5712 5708 5707 5702 5700 5701 5700 5698 5696 5694 5692 5692 5689 5689 5688 5687 5687 5686 5684 5682 5681 5677 5677 5678 5676 5674 5673 5672 5671 5671 5670 5669 5669 5669 5669 5670 5671 5670 5672 5673 5675 5676
5716 5713 5709 5706 5704 5702 5699 5698 5698 5698 5697 5696 5692 5688 5688 5685 5683 5682 5681 5679 5677 5677 5675 5672 5669 5667 5665 5667 5668 5665 5662 5661 5659 5659 5658 5657 5658 5658 5659 5659 5660 5662 5664 5665
5712 5709 5708 5703 5700 5699 5697 5695 5694 5693 5690 5689 5689 5687 5684 5679 5678 5675 5672 5671 5669 5666 5664 5663 5661 5658 5656 5654 5652 5650 5651 5650 5648 5646 5645 5644 5643 5643 5643 5644 5644 5645 5646 5648
5707 5705 5703 5701 5697 5695 5693 5690 5689 5687 5686 5683 5680 5679 5676 5674 5670 5669 5666 5662 5658 5656 5653 5651 5647 5644 5642 5640 5639 5638 5637 5635 5635 5635 5633 5631 5631 5630 5629 5629 5629 5629 5629 5630
5701 5698 5696 5695 5692 5690 5689 5687 5684 5681 5679 5676 5673 5671 5667 5664 5661 5658 5655 5651 5646 5642 5640 5637 5633 5629 5626 5623 5623 5622 5620 5617 5617 5616 5615 5615 5614 5614 5614 5614 5613 5613 5614 5615
5694 5691 5689 5688 5684 5682 5679 5677 5674 5671 5669 5666 5664 5661 5657 5653 5649 5645 5642 5639 5633 5629 5624 5620 5617 5613 5608 5604 5600 5599 5599 5600 5599 5598 5596 5595 5596 5597 5596 5597 5597 5597 5597 5597
5684 5682 5680 5678 5675 5673 5671 5668 5665 5660 5657 5653 5650 5646 5642 5638 5633 5629 5626 5622 5618 5613 5608 5601 5595 5591 5588 5585 5583 5580 5576 5573 5572 5575 5577 5575 5574 5574 5574 5575 5575 5575 5577 5578
5675 5673 5671 5668 5664 5661 5659 5657 5652 5648 5645 5640 5634 5630 5626 5622 5618 5610 5605 5600 5595 5589 5585 5581 5576 5569 5564 5561 5560 5558 5555 5553 5551 5548 5547 5548 5550 5551 5552 5552 5553 5555 5555 5557
5665 5661 5659 5655 5651 5649 5647 5643 5638 5634 5631 5624 5619 5613 5608 5602 5598 5593 5586 5579 5574 5570 5564 5559 5552 5546 5541 5537 5534 5530 5527 5526 5525 5525 5524 5522 5520 5521 5524 5527 5528 5529 5532 5535
5653 5649 5646 5642 5637 5634 5630 5626 5622 5616 5610 5605 5600 5594 5588 5583 5576 5571 5565 5560 5555 5549 5542 5534 5530 5522 5517 5510 5506 5500 5499 5498 5495 5493 5493 5492 5491 5491 5494 5497 5501 5501 5504 5508
5641 5638 5633 5630 5624 5618 5612 5607 5601 5595 5589 5583 5578 5574 5567 5561 5554 5548 5543 5535 5529 5525 5520 5515 5507 5498 5490 5484 5479 5473 5468 5464 5462 5461 5460 5461 5461 5459 5460 5462 5468 5472 5476 5480
5628 5624 5620 5613 5609 5601 5594 5588 5581 5575 5569 5563 5557 5550 5543 5536 5529 5522 5515 5509 5504 5497 5491 5485 5481 5476 5469 5463 5458 5452 5447 5440 5434 5431 5428 5426 5425 5426 5427 5430 5434 5436 5441 5447
5615 5609 5603 5596 5590 5584 5577 5569 5563 5555 5548 5540 5533 5526 5519 5512 5503 5497 5490 5483 5477 5472 5467 5462 5458 5455 5451 5448 5443 5439 5435 5430 5423 5417 5411 5406 5403 5401 5401 5401 5403 5406 5409 5413
5598 5591 5584 5576 5569 5562 5557 5548 5540 5533 5525 5517 5509 5500 5494 5488 5480 5474 5467 5462 5457 5455 5451 5448 5445 5442 5439 5434 5430 5425 5419 5414 5410 5405 5399 5394 5391 5387 5384 5383 5385 5386 5387 5387